Powrót do katalogu

STARLINK-31092

AktywnyŁącznośćVLEO
NORAD 58628·PAYLOAD·🇺🇸 United States

Wystrzelony Dec 23, 2023 z Cape Canaveral Space Force Station

Loading…

Następne Przeloty (najbliższe 24 godziny)

TLE

ŚwieżeSource: CelesTrak SupGP

Epoka: Sep 14, 2026, 22:37 UTC

1 58628C 23203L   26257.94284722  .00061840  00000+0  22386-2 0  2577
2 58628  42.9996  78.1984 0001404 275.8166 178.4023 15.27566119    10

Śledź STARLINK-31092 w czasie rzeczywistym z AllMySat

Download on the App Store